| time (UTC) | temp C | wind direction | speed KPH | gust KPH | rain 1hr cm | rain 24hr cm | rain mn cm | humidity % | barometer mb |
| 20260507210055 | 26 | 207 | 0.0 | 1.6 | 0.00 | 0.00 | 0.00 | 77 | 1018.0 |
| 20260507205552 | 26 | 235 | 1.6 | 6.4 | 0.00 | 0.00 | 0.00 | 76 | 1018.1 |
| 20260507205048 | 27 | 210 | 4.8 | 6.4 | 0.00 | 0.00 | 0.00 | 78 | 1018.3 |
| 20260507204544 | 27 | 243 | 0.0 | 1.6 | 0.00 | 0.00 | 0.00 | 77 | 1017.8 |
| 20260507204042 | 27 | 335 | 0.0 | 4.8 | 0.00 | 0.00 | 0.00 | 75 | 1017.9 |
| 20260507203540 | 27 | 280 | 0.0 | 0.0 | 0.00 | 0.00 | 0.00 | 74 | 1017.9 |
| 20260507203037 | 27 | 203 | 0.0 | 1.6 | 0.00 | 0.00 | 0.00 | 74 | 1017.9 |
| 20260507202533 | 27 | 10 | 0.0 | 9.7 | 0.00 | 0.00 | 0.00 | 74 | 1017.8 |
| 20260507202029 | 27 | 239 | 1.6 | 4.8 | 0.00 | 0.00 | 0.00 | 73 | 1018.0 |
| 20260507201525 | 27 | 207 | 1.6 | 3.2 | 0.00 | 0.00 | 0.00 | 71 | 1018.0 |
| 20260507201021 | 27 | 293 | 6.4 | 6.4 | 0.00 | 0.00 | 0.00 | 71 | 1018.2 |
| 20260507200517 | 27 | 265 | 6.4 | 6.4 | 0.00 | 0.00 | 0.00 | 71 | 1018.2 |
| 20260507200013 | 27 | 214 | 3.2 | 4.8 | 0.00 | 0.00 | 0.00 | 70 | 1018.1 |
| 20260507195510 | 27 | 238 | 3.2 | 4.8 | 0.00 | 0.00 | 0.00 | 73 | 1018.1 |
| 20260507195008 | 27 | 235 | 3.2 | 6.4 | 0.00 | 0.00 | 0.00 | 74 | 1018.2 |
| 20260507194504 | 27 | 329 | 3.2 | 6.4 | 0.00 | 0.00 | 0.00 | 74 | 1018.3 |
| 20260507194000 | 27 | 287 | 4.8 | 4.8 | 0.00 | 0.00 | 0.00 | 74 | 1018.4 |
| 20260507193458 | 27 | 189 | 1.6 | 12.9 | 0.00 | 0.00 | 0.00 | 73 | 1018.4 |
| 20260507192954 | 27 | 232 | 1.6 | 4.8 | 0.00 | 0.00 | 0.00 | 72 | 1018.4 |
| 20260507192450 | 28 | 215 | 1.6 | 9.7 | 0.00 | 0.00 | 0.00 | 71 | 1018.2 |
| 20260507191947 | 28 | 235 | 1.6 | 1.6 | 0.00 | 0.00 | 0.00 | 72 | 1018.3 |
| 20260507191443 | 28 | 248 | 8.0 | 9.7 | 0.00 | 0.00 | 0.00 | 70 | 1018.2 |
| 20260507190940 | 28 | 6 | 3.2 | 9.7 | 0.00 | 0.00 | 0.00 | 70 | 1018.4 |
| 20260507190438 | 28 | 299 | 6.4 | 11.3 | 0.00 | 0.00 | 0.00 | 70 | 1018.2 |
| 20260507185936 | 29 | 259 | 8.0 | 11.3 | 0.00 | 0.00 | 0.00 | 71 | 1018.2 |
| 20260507185433 | 28 | 44 | 6.4 | 9.7 | 0.00 | 0.00 | 0.00 | 69 | 1018.3 |
| 20260507184930 | 29 | 187 | 6.4 | 11.3 | 0.00 | 0.00 | 0.00 | 70 | 1018.3 |
| 20260507184428 | 29 | 242 | 0.0 | 6.4 | 0.00 | 0.00 | 0.00 | 69 | 1018.2 |
| 20260507183926 | 29 | 344 | 1.6 | 6.4 | 0.00 | 0.00 | 0.00 | 70 | 1018.2 |
| 20260507183422 | 29 | 264 | 1.6 | 3.2 | 0.00 | 0.00 | 0.00 | 70 | 1018.4 |
| 20260507182919 | 30 | 256 | 0.0 | 6.4 | 0.00 | 0.00 | 0.00 | 68 | 1018.6 |
| 20260507182415 | 29 | 279 | 0.0 | 3.2 | 0.00 | 0.00 | 0.00 | 71 | 1018.7 |
| 20260507181911 | 30 | 259 | 3.2 | 4.8 | 0.00 | 0.00 | 0.00 | 68 | 1018.8 |
| 20260507181408 | 29 | 82 | 1.6 | 12.9 | 0.00 | 0.00 | 0.00 | 69 | 1018.6 |
| 20260507180904 | 29 | 211 | 0.0 | 4.8 | 0.00 | 0.00 | 0.00 | 69 | 1018.6 |
| 20260507180401 | 29 | 296 | 3.2 | 6.4 | 0.00 | 0.00 | 0.00 | 70 | 1018.6 |
| 20260507175857 | 29 | 294 | 1.6 | 3.2 | 0.00 | 0.00 | 0.00 | 70 | 1018.7 |
| 20260507175354 | 28 | 205 | 1.6 | 3.2 | 0.00 | 0.00 | 0.00 | 71 | 1018.9 |
| 20260507174852 | 29 | 25 | 1.6 | 3.2 | 0.00 | 0.00 | 0.00 | 71 | 1019.0 |
| 20260507174349 | 29 | 359 | 3.2 | 3.2 | 0.00 | 0.00 | 0.00 | 72 | 1018.9 |
| 20260507173847 | 29 | 272 | 0.0 | 11.3 | 0.00 | 0.00 | 0.00 | 71 | 1019.2 |
| 20260507173343 | 30 | 32 | 1.6 | 3.2 | 0.00 | 0.00 | 0.00 | 71 | 1018.9 |
| 20260507172839 | 29 | 207 | 1.6 | 6.4 | 0.00 | 0.00 | 0.00 | 70 | 1019.0 |
| 20260507172336 | 29 | 49 | 0.0 | 6.4 | 0.00 | 0.00 | 0.00 | 71 | 1019.2 |
| 20260507171832 | 29 | 35 | 1.6 | 6.4 | 0.00 | 0.00 | 0.00 | 70 | 1019.1 |
| 20260507171329 | 29 | 237 | 6.4 | 6.4 | 0.00 | 0.00 | 0.00 | 71 | 1019.3 |
| 20260507170826 | 29 | 252 | 3.2 | 3.2 | 0.00 | 0.00 | 0.00 | 70 | 1019.3 |
| 20260507170323 | 30 | 31 | 4.8 | 11.3 | 0.00 | 0.00 | 0.00 | 71 | 1019.3 |
| 20260507165819 | 30 | 17 | 3.2 | 9.7 | 0.00 | 0.00 | 0.00 | 70 | 1019.4 |
| 20260507165315 | 28 | 192 | 0.0 | 6.4 | 0.00 | 0.00 | 0.00 | 72 | 1019.7 |
| 20260507164811 | 30 | 23 | 0.0 | 3.2 | 0.00 | 0.00 | 0.00 | 72 | 1019.8 |
| 20260507164308 | 30 | 191 | 3.2 | 4.8 | 0.00 | 0.00 | 0.00 | 69 | 1019.7 |
| 20260507163805 | 30 | 320 | 3.2 | 6.4 | 0.00 | 0.00 | 0.00 | 71 | 1019.7 |
| 20260507163303 | 30 | 5 | 3.2 | 4.8 | 0.00 | 0.00 | 0.00 | 71 | 1019.6 |
| 20260507162758 | 30 | 329 | 0.0 | 4.8 | 0.00 | 0.00 | 0.00 | 69 | 1020.0 |
| 20260507162255 | 30 | 9 | 0.0 | 4.8 | 0.00 | 0.00 | 0.00 | 71 | 1020.1 |
| 20260507161752 | 29 | 29 | 1.6 | 9.7 | 0.00 | 0.00 | 0.00 | 72 | 1020.2 |
| 20260507161248 | 30 | 138 | 1.6 | 6.4 | 0.00 | 0.00 | 0.00 | 71 | 1020.0 |
| 20260507160744 | 30 | 65 | 3.2 | 16.1 | 0.00 | 0.00 | 0.00 | 71 | 1020.2 |
| 20260507160241 | 30 | 55 | 1.6 | 11.3 | 0.00 | 0.00 | 0.00 | 72 | 1020.0 |
| 20260507155737 | 30 | 206 | 6.4 | 9.7 | 0.00 | 0.00 | 0.00 | 71 | 1019.9 |
| 20260507155233 | 30 | 336 | 1.6 | 11.3 | 0.00 | 0.00 | 0.00 | 71 | 1020.0 |
| 20260507154730 | 29 | 51 | 4.8 | 6.4 | 0.00 | 0.00 | 0.00 | 71 | 1020.0 |
| 20260507154227 | 29 | 0 | 3.2 | 4.8 | 0.00 | 0.00 | 0.00 | 72 | 1020.1 |
| 20260507153723 | 29 | 264 | 0.0 | 4.8 | 0.00 | 0.00 | 0.00 | 70 | 1020.2 |
| 20260507153220 | 28 | 267 | 0.0 | 3.2 | 0.00 | 0.00 | 0.00 | 71 | 1020.2 |
| 20260507152717 | 29 | 29 | 3.2 | 4.8 | 0.00 | 0.00 | 0.00 | 71 | 1020.2 |
| 20260507152213 | 29 | 260 | 1.6 | 1.6 | 0.00 | 0.00 | 0.00 | 70 | 1020.2 |
| 20260507151709 | 29 | 183 | 0.0 | 0.0 | 0.00 | 0.00 | 0.00 | 69 | 1020.2 |
| 20260507151206 | 29 | 187 | 0.0 | 0.0 | 0.00 | 0.00 | 0.00 | 67 | 1020.2 |
| 20260507150703 | 29 | 257 | 0.0 | 3.2 | 0.00 | 0.00 | 0.00 | 65 | 1020.3 |
| 20260507150159 | 29 | 212 | 4.8 | 9.7 | 0.00 | 0.00 | 0.00 | 65 | 1020.3 |
| 20260507145655 | 29 | 221 | 0.0 | 3.2 | 0.00 | 0.00 | 0.00 | 65 | 1020.3 |
| 20260507145152 | 30 | 194 | 4.8 | 4.8 | 0.00 | 0.00 | 0.00 | 63 | 1020.3 |
| 20260507144649 | 30 | 241 | 0.0 | 3.2 | 0.00 | 0.00 | 0.00 | 63 | 1020.2 |
| 20260507144147 | 29 | 198 | 1.6 | 1.6 | 0.00 | 0.00 | 0.00 | 65 | 1020.3 |
| 20260507143643 | 30 | 201 | 1.6 | 6.4 | 0.00 | 0.00 | 0.00 | 64 | 1020.4 |
| 20260507143140 | 30 | 269 | 3.2 | 11.3 | 0.00 | 0.00 | 0.00 | 63 | 1020.5 |
| 20260507142636 | 29 | 292 | 0.0 | 4.8 | 0.00 | 0.00 | 0.00 | 65 | 1020.4 |
| 20260507142133 | 30 | 218 | 4.8 | 4.8 | 0.00 | 0.00 | 0.00 | 63 | 1020.4 |
| 20260507141629 | 28 | 187 | 0.0 | 6.4 | 0.00 | 0.00 | 0.00 | 68 | 1020.5 |
| 20260507141126 | 30 | 230 | 9.7 | 11.3 | 0.00 | 0.00 | 0.00 | 64 | 1020.4 |
| 20260507140622 | 29 | 185 | 3.2 | 3.2 | 0.00 | 0.00 | 0.00 | 65 | 1020.5 |
| 20260507140120 | 29 | 148 | 1.6 | 3.2 | 0.00 | 0.00 | 0.00 | 65 | 1020.4 |
| 20260507135617 | 28 | 206 | 3.2 | 4.8 | 0.00 | 0.00 | 0.00 | 66 | 1020.4 |
| 20260507135115 | 28 | 99 | 0.0 | 0.0 | 0.00 | 0.00 | 0.00 | 67 | 1020.6 |
| 20260507134610 | 28 | 274 | 1.6 | 3.2 | 0.00 | 0.00 | 0.00 | 68 | 1020.5 |
| 20260507134107 | 28 | 202 | 3.2 | 6.4 | 0.00 | 0.00 | 0.00 | 67 | 1020.5 |
| 20260507133603 | 28 | 75 | 1.6 | 1.6 | 0.00 | 0.00 | 0.00 | 69 | 1020.6 |
| 20260507133101 | 28 | 36 | 1.6 | 3.2 | 0.00 | 0.00 | 0.00 | 67 | 1020.3 |
| 20260507132557 | 28 | 247 | 1.6 | 3.2 | 0.00 | 0.00 | 0.00 | 65 | 1020.5 |
| 20260507132054 | 28 | 55 | 1.6 | 4.8 | 0.00 | 0.00 | 0.00 | 67 | 1020.5 |
| 20260507131550 | 27 | 190 | 1.6 | 3.2 | 0.00 | 0.00 | 0.00 | 71 | 1020.3 |
| 20260507131048 | 27 | 223 | 4.8 | 4.8 | 0.00 | 0.00 | 0.00 | 68 | 1020.3 |
| 20260507130544 | 27 | 212 | 1.6 | 1.6 | 0.00 | 0.00 | 0.00 | 70 | 1020.6 |
| 20260507130043 | 26 | 177 | 0.0 | 0.0 | 0.00 | 0.00 | 0.00 | 72 | 1020.5 |
| 20260507125541 | 26 | 313 | 3.2 | 3.2 | 0.00 | 0.00 | 0.00 | 75 | 1020.5 |
| 20260507125038 | 25 | 185 | 3.2 | 3.2 | 0.00 | 0.00 | 0.00 | 76 | 1020.5 |
| 20260507124534 | 25 | 191 | 0.0 | 0.0 | 0.00 | 0.00 | 0.00 | 76 | 1020.3 |
| 20260507124032 | 23 | 240 | 0.0 | 4.8 | 0.00 | 0.00 | 0.00 | 79 | 1020.2 |
| 20260507123530 | 23 | 121 | 0.0 | 0.0 | 0.00 | 0.00 | 0.00 | 88 | 1020.3 |
| 20260507123027 | 23 | 131 | 0.0 | 0.0 | 0.00 | 0.00 | 0.00 | 90 | 1020.1 |
| 20260507122522 | 22 | 135 | 0.0 | 0.0 | 0.00 | 0.00 | 0.00 | 91 | 1019.9 |
| 20260507122018 | 22 | 128 | 0.0 | 0.0 | 0.00 | 0.00 | 0.00 | 92 | 1019.9 |
| 20260507121514 | 22 | 121 | 0.0 | 0.0 | 0.00 | 0.00 | 0.00 | 93 | 1020.0 |
| 20260507121010 | 22 | 121 | 0.0 | 0.0 | 0.00 | 0.00 | 0.00 | 94 | 1019.9 |
| 20260507120506 | 22 | 121 | 0.0 | 0.0 | 0.00 | 0.00 | 0.00 | 94 | 1019.8 |
| 20260507120003 | 21 | 121 | 0.0 | 0.0 | 0.00 | 0.00 | 0.00 | 95 | 1019.8 |
| 20260507115459 | 21 | 121 | 0.0 | 0.0 | 0.00 | 0.00 | 0.00 | 95 | 1019.6 |
| 20260507114955 | 21 | 121 | 0.0 | 0.0 | 0.00 | 0.00 | 0.00 | 95 | 1019.8 |
| 20260507114451 | 21 | 136 | 0.0 | 0.0 | 0.00 | 0.00 | 0.00 | 95 | 1019.5 |
| 20260507113949 | 21 | 140 | 0.0 | 0.0 | 0.00 | 0.00 | 0.00 | 95 | 1019.4 |
| 20260507113446 | 21 | 165 | 0.0 | 0.0 | 0.00 | 0.00 | 0.00 | 95 | 1019.4 |
| 20260507112943 | 20 | 116 | 0.0 | 0.0 | 0.00 | 0.00 | 0.00 | 95 | 1019.5 |
| 20260507112441 | 20 | 116 | 0.0 | 0.0 | 0.00 | 0.00 | 0.00 | 95 | 1019.4 |
| 20260507111937 | 20 | 116 | 0.0 | 0.0 | 0.00 | 0.00 | 0.00 | 95 | 1019.4 |
| 20260507111435 | 20 | 116 | 0.0 | 0.0 | 0.00 | 0.00 | 0.00 | 95 | 1019.3 |
| 20260507110931 | 20 | 111 | 0.0 | 0.0 | 0.00 | 0.00 | 0.00 | 95 | 1019.4 |
| 20260507110427 | 20 | 145 | 0.0 | 0.0 | 0.00 | 0.00 | 0.00 | 95 | 1019.5 |
| 20260507105924 | 20 | 145 | 0.0 | 0.0 | 0.00 | 0.00 | 0.00 | 94 | 1019.4 |
| 20260507105421 | 20 | 145 | 0.0 | 0.0 | 0.00 | 0.00 | 0.00 | 94 | 1019.2 |
| 20260507104917 | 20 | 145 | 0.0 | 0.0 | 0.00 | 0.00 | 0.00 | 94 | 1019.3 |
| 20260507104414 | 20 | 145 | 0.0 | 0.0 | 0.00 | 0.00 | 0.00 | 94 | 1019.5 |
| 20260507103910 | 20 | 145 | 0.0 | 0.0 | 0.00 | 0.00 | 0.00 | 94 | 1019.3 |
| 20260507103407 | 20 | 145 | 0.0 | 0.0 | 0.00 | 0.00 | 0.00 | 94 | 1019.4 |
| 20260507102903 | 20 | 145 | 0.0 | 0.0 | 0.00 | 0.00 | 0.00 | 94 | 1019.2 |
| 20260507102400 | 20 | 145 | 0.0 | 0.0 | 0.00 | 0.00 | 0.00 | 94 | 1019.2 |
| 20260507101857 | 20 | 145 | 0.0 | 0.0 | 0.00 | 0.00 | 0.00 | 94 | 1019.1 |
| 20260507101356 | 20 | 145 | 0.0 | 0.0 | 0.00 | 0.00 | 0.00 | 94 | 1019.4 |
| 20260507100854 | 20 | 145 | 0.0 | 0.0 | 0.00 | 0.00 | 0.00 | 94 | 1019.2 |
| 20260507100351 | 20 | 159 | 0.0 | 0.0 | 0.00 | 0.00 | 0.00 | 94 | 1018.9 |
| 20260507095849 | 20 | 165 | 0.0 | 0.0 | 0.00 | 0.00 | 0.00 | 94 | 1019.0 |
| 20260507095345 | 20 | 184 | 0.0 | 0.0 | 0.00 | 0.00 | 0.00 | 94 | 1019.0 |
| 20260507094843 | 20 | 136 | 0.0 | 0.0 | 0.00 | 0.00 | 0.00 | 94 | 1019.0 |
| 20260507094339 | 20 | 136 | 0.0 | 0.0 | 0.00 | 0.00 | 0.00 | 94 | 1019.0 |
| 20260507093836 | 20 | 134 | 0.0 | 0.0 | 0.00 | 0.00 | 0.00 | 94 | 1018.8 |
| 20260507093335 | 20 | 145 | 0.0 | 0.0 | 0.00 | 0.00 | 0.00 | 94 | 1018.6 |
| 20260507092832 | 20 | 144 | 0.0 | 0.0 | 0.00 | 0.00 | 0.00 | 94 | 1018.8 |
| 20260507092328 | 20 | 147 | 0.0 | 0.0 | 0.00 | 0.00 | 0.00 | 94 | 1018.9 |
| 20260507091825 | 20 | 146 | 0.0 | 0.0 | 0.00 | 0.00 | 0.00 | 94 | 1018.7 |
| 20260507091322 | 20 | 165 | 0.0 | 0.0 | 0.00 | 0.00 | 0.00 | 94 | 1018.7 |
| 20260507090817 | 20 | 143 | 0.0 | 0.0 | 0.00 | 0.00 | 0.00 | 94 | 1018.9 |
| 20260507090314 | 20 | 143 | 0.0 | 0.0 | 0.00 | 0.00 | 0.00 | 94 | 1018.8 |
| 20260507085811 | 20 | 142 | 0.0 | 0.0 | 0.00 | 0.00 | 0.00 | 94 | 1018.8 |
| 20260507085307 | 20 | 150 | 0.0 | 0.0 | 0.00 | 0.00 | 0.00 | 94 | 1019.0 |
| 20260507084805 | 20 | 149 | 0.0 | 0.0 | 0.00 | 0.00 | 0.00 | 94 | 1019.0 |
| 20260507084301 | 20 | 193 | 0.0 | 0.0 | 0.00 | 0.00 | 0.00 | 94 | 1018.9 |
| 20260507083759 | 20 | 219 | 0.0 | 0.0 | 0.00 | 0.00 | 0.00 | 94 | 1019.2 |
| 20260507083255 | 20 | 150 | 0.0 | 0.0 | 0.00 | 0.00 | 0.00 | 94 | 1019.2 |
| 20260507082751 | 20 | 143 | 0.0 | 0.0 | 0.00 | 0.00 | 0.00 | 94 | 1019.0 |
| 20260507082247 | 20 | 133 | 0.0 | 0.0 | 0.00 | 0.00 | 0.00 | 94 | 1019.1 |
| 20260507081744 | 20 | 141 | 0.0 | 0.0 | 0.00 | 0.00 | 0.00 | 94 | 1019.0 |
| 20260507081240 | 20 | 138 | 0.0 | 0.0 | 0.00 | 0.00 | 0.00 | 94 | 1018.9 |
| 20260507080737 | 20 | 137 | 0.0 | 0.0 | 0.00 | 0.00 | 0.00 | 94 | 1019.0 |
| 20260507080233 | 20 | 137 | 0.0 | 0.0 | 0.00 | 0.00 | 0.00 | 94 | 1018.9 |
| 20260507075728 | 21 | 140 | 0.0 | 0.0 | 0.00 | 0.00 | 0.00 | 93 | 1018.9 |
| 20260507075225 | 21 | 155 | 0.0 | 0.0 | 0.00 | 0.00 | 0.00 | 93 | 1019.1 |
| 20260507074722 | 21 | 155 | 0.0 | 0.0 | 0.00 | 0.00 | 0.00 | 93 | 1018.9 |
| 20260507074220 | 21 | 155 | 0.0 | 0.0 | 0.00 | 0.00 | 0.00 | 93 | 1018.8 |
| 20260507073716 | 21 | 155 | 0.0 | 0.0 | 0.00 | 0.00 | 0.00 | 93 | 1019.0 |
| 20260507073212 | 21 | 168 | 0.0 | 0.0 | 0.00 | 0.00 | 0.00 | 93 | 1018.8 |
| 20260507072710 | 21 | 182 | 0.0 | 0.0 | 0.00 | 0.00 | 0.00 | 93 | 1019.0 |
| 20260507072207 | 21 | 139 | 0.0 | 0.0 | 0.00 | 0.00 | 0.00 | 93 | 1019.0 |
| 20260507071705 | 21 | 150 | 0.0 | 0.0 | 0.00 | 0.00 | 0.00 | 93 | 1018.9 |
| 20260507071201 | 21 | 159 | 0.0 | 0.0 | 0.00 | 0.00 | 0.00 | 93 | 1019.0 |
| 20260507070659 | 21 | 137 | 0.0 | 0.0 | 0.00 | 0.00 | 0.00 | 93 | 1019.0 |
| 20260507070155 | 21 | 136 | 0.0 | 0.0 | 0.00 | 0.00 | 0.00 | 93 | 1019.1 |
| 20260507065651 | 21 | 136 | 0.0 | 0.0 | 0.00 | 0.00 | 0.00 | 93 | 1019.2 |
| 20260507065148 | 21 | 160 | 0.0 | 0.0 | 0.00 | 0.00 | 0.00 | 93 | 1019.3 |
| 20260507064646 | 21 | 181 | 0.0 | 0.0 | 0.00 | 0.00 | 0.00 | 93 | 1019.5 |
| 20260507064144 | 21 | 168 | 0.0 | 0.0 | 0.00 | 0.00 | 0.00 | 93 | 1019.3 |
| 20260507063642 | 21 | 151 | 0.0 | 0.0 | 0.00 | 0.00 | 0.00 | 93 | 1019.5 |
| 20260507063138 | 21 | 144 | 0.0 | 0.0 | 0.00 | 0.00 | 0.00 | 93 | 1019.6 |
| 20260507062635 | 21 | 139 | 0.0 | 0.0 | 0.00 | 0.00 | 0.00 | 93 | 1019.5 |
| 20260507062133 | 22 | 154 | 0.0 | 0.0 | 0.00 | 0.00 | 0.00 | 93 | 1019.5 |
| 20260507061630 | 22 | 171 | 0.0 | 0.0 | 0.00 | 0.00 | 0.00 | 93 | 1019.6 |
| 20260507061128 | 22 | 128 | 0.0 | 0.0 | 0.00 | 0.00 | 0.00 | 93 | 1019.6 |
| 20260507060626 | 22 | 126 | 0.0 | 0.0 | 0.00 | 0.00 | 0.00 | 93 | 1019.8 |
| 20260507060122 | 22 | 136 | 0.0 | 0.0 | 0.00 | 0.00 | 0.00 | 93 | 1020.1 |
| 20260507055618 | 22 | 153 | 0.0 | 0.0 | 0.00 | 0.00 | 0.00 | 92 | 1019.8 |
| 20260507055114 | 22 | 149 | 0.0 | 0.0 | 0.00 | 0.00 | 0.00 | 92 | 1020.0 |
| 20260507054610 | 22 | 171 | 0.0 | 0.0 | 0.00 | 0.00 | 0.00 | 92 | 1019.9 |
| 20260507054107 | 22 | 180 | 0.0 | 0.0 | 0.00 | 0.00 | 0.00 | 92 | 1020.1 |
| 20260507053605 | 22 | 159 | 0.0 | 0.0 | 0.00 | 0.00 | 0.00 | 92 | 1020.3 |
| 20260507053104 | 22 | 150 | 0.0 | 0.0 | 0.00 | 0.00 | 0.00 | 92 | 1020.4 |
| 20260507052601 | 22 | 143 | 0.0 | 0.0 | 0.00 | 0.00 | 0.00 | 92 | 1020.4 |
| 20260507052057 | 22 | 130 | 0.0 | 0.0 | 0.00 | 0.00 | 0.00 | 92 | 1020.4 |
| 20260507051555 | 22 | 110 | 0.0 | 0.0 | 0.00 | 0.00 | 0.00 | 92 | 1020.2 |
| 20260507051052 | 22 | 127 | 0.0 | 0.0 | 0.00 | 0.00 | 0.00 | 91 | 1020.5 |
| 20260507050549 | 23 | 127 | 0.0 | 0.0 | 0.00 | 0.00 | 0.00 | 91 | 1020.7 |
| 20260507050045 | 23 | 127 | 0.0 | 0.0 | 0.00 | 0.00 | 0.00 | 91 | 1020.8 |
| 20260507045541 | 23 | 133 | 0.0 | 0.0 | 0.00 | 0.00 | 0.00 | 91 | 1020.6 |
| 20260507045039 | 23 | 147 | 0.0 | 0.0 | 0.00 | 0.00 | 0.00 | 91 | 1020.7 |
| 20260507044535 | 23 | 180 | 0.0 | 0.0 | 0.00 | 0.00 | 0.00 | 90 | 1020.7 |
| 20260507044032 | 23 | 148 | 0.0 | 0.0 | 0.00 | 0.00 | 0.00 | 90 | 1020.5 |
| 20260507043528 | 23 | 191 | 0.0 | 0.0 | 0.00 | 0.00 | 0.00 | 90 | 1020.6 |
| 20260507043026 | 23 | 178 | 0.0 | 0.0 | 0.00 | 0.00 | 0.00 | 90 | 1020.8 |
| 20260507042521 | 23 | 198 | 0.0 | 0.0 | 0.00 | 0.00 | 0.00 | 91 | 1020.9 |
| 20260507042017 | 23 | 138 | 0.0 | 0.0 | 0.00 | 0.00 | 0.00 | 91 | 1020.9 |
| 20260507041514 | 23 | 123 | 0.0 | 0.0 | 0.00 | 0.00 | 0.00 | 91 | 1021.0 |
| 20260507041011 | 23 | 141 | 0.0 | 0.0 | 0.00 | 0.00 | 0.00 | 91 | 1020.9 |
| 20260507040507 | 23 | 133 | 0.0 | 0.0 | 0.00 | 0.00 | 0.00 | 91 | 1021.0 |
| 20260507040003 | 23 | 136 | 0.0 | 0.0 | 0.00 | 0.00 | 0.00 | 90 | 1020.9 |
| 20260507035500 | 23 | 122 | 0.0 | 0.0 | 0.00 | 0.00 | 0.00 | 90 | 1021.0 |
| 20260507034956 | 24 | 158 | 0.0 | 0.0 | 0.00 | 0.00 | 0.00 | 90 | 1021.3 |
| 20260507034453 | 24 | 122 | 0.0 | 0.0 | 0.00 | 0.00 | 0.00 | 90 | 1021.3 |
| 20260507033951 | 24 | 272 | 0.0 | 1.6 | 0.00 | 0.00 | 0.00 | 90 | 1021.3 |
| 20260507033449 | 24 | 290 | 0.0 | 0.0 | 0.00 | 0.00 | 0.00 | 90 | 1021.3 |
| 20260507032946 | 24 | 290 | 0.0 | 0.0 | 0.00 | 0.00 | 0.00 | 90 | 1021.2 |
| 20260507032443 | 24 | 252 | 0.0 | 0.0 | 0.00 | 0.00 | 0.00 | 91 | 1021.2 |
| 20260507031939 | 24 | 184 | 0.0 | 3.2 | 0.00 | 0.00 | 0.00 | 92 | 1021.1 |
| 20260507031435 | 24 | 206 | 0.0 | 0.0 | 0.00 | 0.00 | 0.00 | 92 | 1021.3 |
| 20260507030932 | 24 | 153 | 0.0 | 0.0 | 0.00 | 0.00 | 0.00 | 92 | 1021.3 |
| 20260507030429 | 24 | 109 | 0.0 | 0.0 | 0.00 | 0.00 | 0.00 | 92 | 1021.3 |
| 20260507025927 | 24 | 116 | 0.0 | 0.0 | 0.00 | 0.00 | 0.00 | 92 | 1021.3 |
| 20260507025424 | 24 | 136 | 0.0 | 0.0 | 0.00 | 0.00 | 0.00 | 91 | 1021.3 |
| 20260507024921 | 24 | 96 | 0.0 | 0.0 | 0.00 | 0.00 | 0.00 | 91 | 1021.2 |
| 20260507024419 | 24 | 97 | 0.0 | 0.0 | 0.00 | 0.00 | 0.00 | 91 | 1021.2 |
| 20260507023914 | 24 | 104 | 0.0 | 0.0 | 0.00 | 0.00 | 0.00 | 91 | 1021.3 |
| 20260507023411 | 25 | 106 | 0.0 | 0.0 | 0.00 | 0.00 | 0.00 | 91 | 1021.3 |
| 20260507022909 | 24 | 143 | 0.0 | 0.0 | 0.00 | 0.00 | 0.00 | 91 | 1021.2 |
| 20260507022405 | 24 | 97 | 0.0 | 0.0 | 0.00 | 0.00 | 0.00 | 91 | 1021.3 |
| 20260507021901 | 24 | 98 | 0.0 | 0.0 | 0.00 | 0.00 | 0.00 | 91 | 1021.2 |
| 20260507021356 | 24 | 105 | 0.0 | 0.0 | 0.00 | 0.00 | 0.00 | 91 | 1021.2 |
| 20260507020854 | 24 | 95 | 0.0 | 0.0 | 0.00 | 0.00 | 0.00 | 91 | 1020.9 |
| 20260507020351 | 25 | 117 | 0.0 | 0.0 | 0.00 | 0.00 | 0.00 | 91 | 1021.3 |
| 20260507015848 | 25 | 109 | 0.0 | 0.0 | 0.00 | 0.00 | 0.00 | 91 | 1021.1 |
| 20260507015346 | 25 | 108 | 0.0 | 0.0 | 0.00 | 0.00 | 0.00 | 91 | 1021.2 |
| 20260507014843 | 24 | 123 | 0.0 | 0.0 | 0.00 | 0.00 | 0.00 | 91 | 1021.0 |
| 20260507014339 | 24 | 209 | 0.0 | 0.0 | 0.00 | 0.00 | 0.00 | 91 | 1021.0 |
| 20260507013835 | 24 | 137 | 0.0 | 0.0 | 0.00 | 0.00 | 0.00 | 91 | 1020.8 |
| 20260507013332 | 25 | 102 | 0.0 | 0.0 | 0.00 | 0.00 | 0.00 | 90 | 1020.7 |
| 20260507012830 | 25 | 106 | 0.0 | 0.0 | 0.00 | 0.00 | 0.00 | 90 | 1020.8 |
| 20260507012326 | 25 | 93 | 0.0 | 0.0 | 0.00 | 0.00 | 0.00 | 90 | 1020.6 |
| 20260507011823 | 25 | 96 | 0.0 | 0.0 | 0.00 | 0.00 | 0.00 | 90 | 1020.8 |
| 20260507011320 | 25 | 115 | 0.0 | 0.0 | 0.00 | 0.00 | 0.00 | 90 | 1020.6 |
| 20260507010820 | 25 | 66 | 0.0 | 0.0 | 0.00 | 0.00 | 0.00 | 89 | 1020.8 |
| 20260507010315 | 25 | 118 | 0.0 | 0.0 | 0.00 | 0.00 | 0.00 | 89 | 1020.8 |
| 20260507005813 | 25 | 124 | 0.0 | 0.0 | 0.00 | 0.00 | 0.00 | 89 | 1020.6 |
| 20260507005310 | 25 | 101 | 0.0 | 0.0 | 0.00 | 0.00 | 0.00 | 88 | 1020.8 |
| 20260507004806 | 25 | 119 | 0.0 | 0.0 | 0.00 | 0.00 | 0.00 | 88 | 1020.6 |
| 20260507004304 | 25 | 139 | 0.0 | 0.0 | 0.00 | 0.00 | 0.00 | 88 | 1020.6 |
| 20260507003800 | 25 | 170 | 0.0 | 0.0 | 0.00 | 0.00 | 0.00 | 88 | 1020.7 |
| 20260507003255 | 25 | 125 | 0.0 | 0.0 | 0.00 | 0.00 | 0.00 | 88 | 1020.5 |
| 20260507002751 | 25 | 147 | 0.0 | 0.0 | 0.00 | 0.00 | 0.00 | 87 | 1020.6 |
| 20260507002247 | 25 | 140 | 0.0 | 0.0 | 0.00 | 0.00 | 0.00 | 87 | 1020.4 |
| 20260507001745 | 25 | 147 | 0.0 | 0.0 | 0.00 | 0.00 | 0.00 | 87 | 1020.4 |
| 20260507001242 | 25 | 150 | 0.0 | 0.0 | 0.00 | 0.00 | 0.00 | 86 | 1020.4 |
| 20260507000738 | 25 | 140 | 0.0 | 0.0 | 0.00 | 0.00 | 0.00 | 86 | 1020.3 |
| 20260507000234 | 26 | 229 | 0.0 | 0.0 | 0.00 | 0.00 | 0.00 | 86 | 1020.3 |
| 20260506235731 | 25 | 179 | 0.0 | 0.0 | 0.00 | 0.00 | 0.00 | 86 | 1020.1 |
| 20260506235226 | 26 | 131 | 0.0 | 0.0 | 0.00 | 0.00 | 0.00 | 86 | 1020.2 |
| 20260506234723 | 26 | 342 | 0.0 | 0.0 | 0.00 | 0.00 | 0.00 | 85 | 1020.0 |
| 20260506234221 | 26 | 252 | 0.0 | 0.0 | 0.00 | 0.00 | 0.00 | 85 | 1020.0 |
| 20260506233718 | 26 | 252 | 0.0 | 0.0 | 0.00 | 0.00 | 0.00 | 85 | 1019.9 |
| 20260506233214 | 26 | 252 | 0.0 | 0.0 | 0.00 | 0.00 | 0.00 | 85 | 1020.0 |
| 20260506232711 | 26 | 252 | 0.0 | 0.0 | 0.00 | 0.00 | 0.00 | 84 | 1020.0 |
| 20260506232206 | 26 | 324 | 0.0 | 0.0 | 0.00 | 0.00 | 0.00 | 84 | 1020.1 |
| 20260506231703 | 26 | 278 | 0.0 | 0.0 | 0.00 | 0.00 | 0.00 | 84 | 1020.3 |
| 20260506231202 | 26 | 281 | 0.0 | 0.0 | 0.00 | 0.00 | 0.00 | 84 | 1019.8 |
| 20260506230658 | 26 | 281 | 0.0 | 0.0 | 0.00 | 0.00 | 0.00 | 84 | 1019.8 |
| 20260506230155 | 26 | 281 | 0.0 | 0.0 | 0.00 | 0.00 | 0.00 | 84 | 1019.9 |
| 20260506225652 | 26 | 0 | 0.0 | 1.6 | 0.00 | 0.00 | 0.00 | 84 | 1019.6 |
| 20260506225149 | 26 | 62 | 0.0 | 0.0 | 0.00 | 0.00 | 0.00 | 84 | 1019.7 |
| 20260506224645 | 26 | 213 | 0.0 | 1.6 | 0.00 | 0.00 | 0.00 | 83 | 1019.7 |
| 20260506224142 | 26 | 325 | 0.0 | 0.0 | 0.00 | 0.00 | 0.00 | 83 | 1019.5 |
| 20260506223638 | 26 | 198 | 0.0 | 0.0 | 0.00 | 0.00 | 0.00 | 83 | 1019.4 |
| 20260506223134 | 26 | 286 | 0.0 | 0.0 | 0.00 | 0.00 | 0.00 | 83 | 1019.4 |
| 20260506222631 | 26 | 83 | 0.0 | 0.0 | 0.00 | 0.00 | 0.00 | 83 | 1019.4 |
| 20260506222127 | 26 | 4 | 0.0 | 1.6 | 0.00 | 0.00 | 0.00 | 83 | 1019.4 |
| 20260506221625 | 26 | 264 | 0.0 | 1.6 | 0.00 | 0.00 | 0.00 | 83 | 1019.3 |
| 20260506221123 | 26 | 303 | 0.0 | 3.2 | 0.00 | 0.00 | 0.00 | 83 | 1019.2 |
| 20260506220619 | 26 | 305 | 0.0 | 3.2 | 0.00 | 0.00 | 0.00 | 82 | 1019.2 |
| 20260506220115 | 26 | 276 | 0.0 | 0.0 | 0.00 | 0.00 | 0.00 | 82 | 1019.1 |
| 20260506215612 | 26 | 31 | 4.8 | 4.8 | 0.00 | 0.00 | 0.00 | 82 | 1019.0 |
| 20260506215107 | 26 | 24 | 3.2 | 4.8 | 0.00 | 0.00 | 0.00 | 81 | 1019.0 |
| 20260506214604 | 26 | 15 | 1.6 | 3.2 | 0.00 | 0.00 | 0.00 | 81 | 1019.1 |
| 20260506214101 | 26 | 18 | 0.0 | 1.6 | 0.00 | 0.00 | 0.00 | 81 | 1019.0 |
| 20260506213600 | 26 | 0 | 1.6 | 1.6 | 0.00 | 0.00 | 0.00 | 81 | 1019.1 |
| 20260506213056 | 26 | 353 | 1.6 | 1.6 | 0.00 | 0.00 | 0.00 | 81 | 1018.9 |
| 20260506212553 | 26 | 310 | 0.0 | 4.8 | 0.00 | 0.00 | 0.00 | 81 | 1019.0 |
| 20260506212048 | 26 | 27 | 1.6 | 1.6 | 0.00 | 0.00 | 0.00 | 81 | 1018.8 |
| 20260506211544 | 26 | 29 | 4.8 | 9.7 | 0.00 | 0.00 | 0.00 | 80 | 1018.9 |
| 20260506211042 | 26 | 353 | 0.0 | 1.6 | 0.00 | 0.00 | 0.00 | 80 | 1018.8 |
| 20260506210538 | 26 | 340 | 0.0 | 3.2 | 0.00 | 0.00 | 0.00 | 80 | 1018.7 |